EW2027 Weather Reports


Display with metric or nautical units.
time (UTC)temp
F
wind
direction
speed
MPH
gust
MPH
rain 1hr
in
rain 24hr
in
rain mn
in
humidity
%
barometer
mb
20260503053704 55 128 1.0 2.0 0.00 0.00 0.00 67 1021.5
20260503053203 55 128 1.0 3.0 0.00 0.00 0.00 67 1021.5
20260503050203 56 127 0.0 3.0 0.00 0.00 0.00 64 1021.3
20260503043703 57 136 1.0 2.0 0.00 0.00 0.00 62 1021.3
20260503043203 57 136 2.0 3.0 0.00 0.00 0.00 62 1021.2
20260503040703 57 161 2.0 3.0 0.00 0.00 0.00 62 1021.3
20260503033703 58 160 0.0 2.0 0.00 0.00 0.00 62 1021.3
20260503033203 58 160 1.0 3.0 0.00 0.00 0.00 61 1021.3
20260503030703 60 160 1.0 2.0 0.00 0.00 0.00 58 1021.2
20260503030203 60 160 2.0 6.0 0.00 0.00 0.00 58 1021.0
20260503023703 60 144 0.0 1.0 0.00 0.00 0.00 58 1020.9
20260503020703 62 144 0.0 0.0 0.00 0.00 0.00 54 1020.9
20260503020203 63 144 0.0 0.0 0.00 0.00 0.00 53 1020.9
20260503013702 66 161 0.0 1.0 0.00 0.00 0.00 48 1020.7
20260503013203 66 161 1.0 6.0 0.00 0.00 0.00 46 1020.8
20260503010703 67 63 1.0 3.0 0.00 0.00 0.00 46 1020.5
20260503010203 67 65 1.0 3.0 0.00 0.00 0.00 47 1020.5
20260503003703 68 39 1.0 3.0 0.00 0.00 0.00 44 1020.6
20260503003203 68 58 0.0 3.0 0.00 0.00 0.00 44 1020.7
20260503000703 70 11 1.0 3.0 0.00 0.00 0.00 41 1020.8
20260503000204 70 11 1.0 8.0 0.00 0.00 0.00 40 1020.7
20260502233703 72 36 2.0 3.0 0.00 0.00 0.00 37 1020.9
20260502233202 73 79 1.0 5.0 0.00 0.00 0.00 38 1020.9
20260502230703 72 18 1.0 3.0 0.00 0.00 0.00 38 1020.9
20260502230204 72 20 4.0 9.0 0.00 0.00 0.00 37 1021.0
20260502223703 72 309 0.0 3.0 0.00 0.00 0.00 38 1021.0
20260502223202 72 311 3.0 8.0 0.00 0.00 0.00 37 1021.0
20260502220702 73 10 3.0 7.0 0.00 0.00 0.00 39 1021.2
20260502220204 72 332 2.0 7.0 0.00 0.00 0.00 40 1021.2
20260502213204 72 51 3.0 7.0 0.00 0.00 0.00 39 1021.4
20260502210203 73 342 4.0 9.0 0.00 0.00 0.00 41 1021.8
20260502203703 72 9 1.0 6.0 0.00 0.00 0.00 38 1022.2
20260502203203 72 357 1.0 10.0 0.00 0.00 0.00 40 1022.2
20260502200702 71 287 2.0 5.0 0.00 0.00 0.00 41 1022.4
20260502200203 70 153 2.0 7.0 0.00 0.00 0.00 40 1022.4
20260502193703 71 342 3.0 8.0 0.00 0.00 0.00 41 1022.7
20260502190703 70 82 3.0 8.0 0.00 0.00 0.00 42 1022.8
20260502190203 70 237 2.0 9.0 0.00 0.00 0.00 43 1022.8
20260502183703 70 111 3.0 6.0 0.00 0.00 0.00 45 1023.1
20260502180703 70 331 5.0 9.0 0.00 0.00 0.00 42 1023.4
20260502180202 70 61 2.0 9.0 0.00 0.00 0.00 51 1023.4
20260502170203 68 352 2.0 6.0 0.00 0.00 0.00 54 1023.7
20260502163703 67 0 1.0 3.0 0.00 0.00 0.00 51 1023.7
20260502163204 67 31 1.0 8.0 0.00 0.00 0.00 55 1023.8
20260502160203 65 297 3.0 8.0 0.00 0.00 0.00 51 1023.9
20260502130703 51 147 1.0 2.0 0.00 0.00 0.00 86 1023.5
20260502130204 51 146 1.0 3.0 0.00 0.00 0.00 86 1023.6
20260502123703 50 146 0.0 0.0 0.00 0.00 0.00 86 1022.8
20260502123203 50 146 0.0 2.0 0.00 0.00 0.00 86 1022.8
20260502120704 49 147 0.0 0.0 0.00 0.00 0.00 86 1022.1
20260502120203 49 147 0.0 2.0 0.00 0.00 0.00 86 1022.0
20260502113703 49 147 1.0 2.0 0.00 0.00 0.00 85 1021.8
20260502110703 50 147 0.0 0.0 0.00 0.00 0.00 84 1021.7
20260502110203 50 147 0.0 3.0 0.00 0.00 0.00 84 1021.7
20260502103703 51 144 1.0 2.0 0.00 0.00 0.00 83 1022.0
20260502103203 52 58 0.0 3.0 0.00 0.00 0.00 82 1022.0
20260502100703 52 18 1.0 3.0 0.00 0.00 0.00 82 1023.3
20260502100203 52 38 2.0 3.0 0.00 0.00 0.00 81 1023.4
20260502090703 52 340 1.0 5.0 0.00 0.00 0.00 76 1023.1
20260502090203 53 345 2.0 13.0 0.00 0.00 0.00 75 1023.1
20260502070703 53 168 0.0 1.0 0.00 0.00 0.00 68 1020.8
20260502070202 53 167 0.0 1.0 0.00 0.00 0.00 68 1020.9
20260502063703 52 167 0.0 0.0 0.00 0.00 0.00 69 1021.2
20260502063203 52 168 0.0 1.0 0.00 0.00 0.00 69 1021.2
20260502060703 53 173 0.0 0.0 0.00 0.00 0.00 69 1021.2
20260502060203 53 170 0.0 0.0 0.00 0.00 0.00 68 1021.3